OVZON-3

Last updated on Thu Oct 30 2025 00:02:52 GMT+0000 (Coordinated Universal Time)

1 58698U 24003A 25302.12613623 .00000061 00000+0 00000+0 0 9996 2 58698 0.0108 217.4466 0000180 257.0811 28.3210 1.00272889 5121
UTC large
Height (km)
Speed (km/s)
/
Latitude / Longitude
Inclination (degrees)
Orbital Period (minutes)
Azimuth
Elevation
Range (km)
Doppler Factor

Next 0 passes for location: London (51.5072 / 0.1276)

Sorry there are no passes over London.